Probability
0 0 0 0 2 3 2 0 0 0 0 0 0 0 0 0 0 0 1 19 38 28 8 3 3 3 3 3 3 1 0 0 0 0 0 0 0 0 0 0 0 0 0 0 0 0 0 0 0
0 0 0 0 1 1 1 0 0 0 0 0 0 0 0 0 0 0 3 19 34 23 7 4 3 3 3 3 3 2 1 0 0 0 0 0 0 0 0 0 0 0 0 0 0 0 0 0 0
0 0 0 0 1 0 0 0 0 0 0 0 0 0 0 0 0 0 4 20 30 19 7 5 4 3 3 3 3 2 1 0 0 1 1 1 1 0 0 0 0 0 0 0 0 0 0 0 0
0 0 0 0 0 0 0 0 0 0 0 0 1 2 2 1 0 0 6 20 26 19 11 8 5 4 3 3 3 1 0 0 1 1 2 3 2 1 0 0 1 1 0 0 0 0 0 0 0
0 0 0 0 0 0 0 0 0 0 0 0 3 6 4 1 0 0 5 16 22 23 19 12 7 5 4 4 3 2 2 1 1 2 3 4 4 3 1 2 3 3 1 1 1 0 0 0 0
0 0 0 0 0 0 0 0 0 0 0 0 4 8 6 2 0 0 3 9 23 35 32 18 11 9 7 6 5 5 4 3 3 4 5 5 6 6 4 6 9 10 8 6 4 2 0 1 1
0 0 0 0 0 0 0 0 0 0 0 0 3 7 7 3 1 0 0 6 28 51 45 26 17 14 9 6 6 6 6 6 6 6 6 6 7 8 10 14 19 21 21 18 13 7 5 7 7
0 0 0 0 0 0 0 0 0 0 0 2 4 6 6 3 1 0 0 6 30 57 54 32 22 18 9 6 9 10 9 9 9 9 9 9 9 11 18 26 31 34 37 34 27 21 19 19 18
0 0 0 0 0 0 0 0 0 2 4 8 10 8 5 3 1 1 1 7 29 55 56 39 33 25 11 10 18 20 17 16 15 16 20 19 13 14 28 41 52 56 56 55 51 45 40 34 28
0 0 0 0 0 0 0 0 1 5 10 14 16 12 5 2 3 4 5 12 31 51 55 52 54 44 26 28 38 32 29 34 29 30 41 40 25 20 33 58 76 80 77 76 76 71 61 46 34
0 0 0 0 0 0 0 2 5 10 14 16 17 16 9 5 7 11 15 26 42 52 54 63 75 71 55 57 61 47 45 57 52 49 62 64 52 40 45 69 89 91 89 87 87 85 75 54 37
0 0 0 0 0 0 1 4 10 15 19 22 26 28 24 20 22 27 35 50 62 63 59 70 87 90 81 79 78 66 64 72 71 69 75 78 77 68 67 78 88 89 89 87 84 84 79 63 48
0 0 0 0 0 0 2 5 11 19 28 36 44 50 50 48 50 54 63 75 82 80 74 80 92 96 92 89 87 82 79 79 79 80 80 83 86 85 83 85 86 84 83 82 79 78 76 69 63
0 0 0 0 0 0 2 4 11 23 35 44 56 68 75 78 78 81 86 91 94 92 88 89 93 93 91 89 90 89 87 86 84 83 83 83 86 86 84 84 81 77 76 75 73 70 66 62 61
0 0 0 0 0 0 2 7 16 27 37 47 59 72 85 91 93 93 94 96 97 96 95 94 94 93 91 90 90 91 91 89 88 86 84 83 82 80 78 77 74 69 68 68 65 60 52 46 43
0 0 0 0 0 0 3 12 21 26 33 46 55 64 75 85 90 92 93 96 97 97 97 97 95 95 95 94 92 91 90 88 87 86 84 81 77 72 71 70 66 62 61 58 53 46 38 33 29
0 0 0 1 0 0 4 15 23 23 29 40 48 52 58 68 75 78 81 84 87 91 93 94 95 95 95 95 92 87 84 82 81 84 83 77 69 65 64 63 61 57 52 47 38 31 28 26 24
0 0 1 2 1 0 6 18 23 22 26 34 38 39 41 46 51 52 54 58 63 71 79 85 87 90 91 90 86 83 80 76 75 77 76 67 58 56 56 58 59 53 44 35 27 23 22 20 19
0 0 1 3 2 1 8 20 24 23 24 26 26 25 24 24 27 28 28 31 36 46 58 66 71 75 78 79 78 77 75 69 65 65 62 53 44 41 43 47 50 45 34 26 21 19 16 11 9
0 0 1 2 2 2 8 17 22 22 20 17 15 14 11 10 12 14 15 16 20 28 36 45 52 58 61 63 65 67 66 60 56 57 53 41 32 27 27 34 37 33 28 23 20 16 12 7 4
0 0 1 1 1 2 6 13 20 19 13 9 7 7 6 5 5 6 7 9 12 17 24 34 45 50 50 51 53 56 56 51 50 53 48 35 24 18 17 21 25 25 26 25 22 17 12 8 5
0 0 0 0 0 1 3 9 15 15 9 6 4 3 3 3 3 3 4 6 8 12 21 37 49 53 52 52 52 52 49 45 43 44 42 33 21 13 11 12 15 18 21 22 21 19 16 10 7
0 0 0 0 0 0 1 5 9 10 10 9 6 3 1 2 3 4 5 8 9 12 22 39 56 62 61 59 57 53 49 44 39 35 35 30 23 15 10 8 8 9 11 12 15 18 17 12 9
0 0 0 0 0 0 0 2 4 6 9 10 7 4 2 1 2 3 4 9 13 17 23 37 52 59 58 56 54 51 48 43 34 27 24 23 20 17 12 9 8 6 4 5 9 12 12 11 9
0 0 0 1 0 0 0 2 4 5 6 6 4 3 3 1 1 3 5 9 15 20 24 30 38 43 42 41 40 40 37 30 23 18 15 13 12 13 12 11 9 6 3 2 4 5 6 7 7
0 0 0 0 0 0 1 4 6 4 2 1 1 1 1 1 2 4 6 9 11 14 16 19 24 27 27 25 25 26 23 17 13 11 9 7 6 8 10 12 11 9 7 6 5 4 4 5 5
0 0 0 0 0 0 2 5 6 3 0 0 0 0 0 0 1 2 3 5 4 4 5 8 12 15 16 14 13 15 15 10 7 6 5 5 7 8 9 10 11 12 13 12 10 5 3 3 2
0 0 0 0 0 0 1 3 4 1 0 0 0 0 0 0 0 0 1 1 1 0 0 2 4 6 6 5 4 6 7 7 6 4 4 6 9 9 8 7 7 11 15 15 11 6 3 2 1
0 0 0 0 0 0 0 1 2 1 0 0 0 0 0 0 0 0 0 0 0 0 0 0 2 3 2 2 2 2 3 4 5 5 6 8 9 8 7 4 4 6 10 11 9 5 3 1 0
0 0 0 0 0 0 0 0 1 0 0 0 0 0 0 0 0 0 0 0 0 0 0 0 0 1 1 1 2 3 2 2 4 5 6 7 7 7 6 4 2 2 4 6 6 4 2 0 0
Wind_Speed
12 12 11 8 5 3 8 8 9 11 11 10 8 8 15 17 12 9 10 17 24 21 18 18 16 15 13 12 12 12 12 12 12 11 11 11 11 11 10 10 9 9 9 8 8 8 9 9 9
12 13 10 6 5 2 2 4 6 9 7 6 7 10 16 16 12 11 12 18 24 20 17 16 17 15 14 13 12 12 12 12 12 12 11 11 11 10 10 10 9 8 8 8 8 8 8 8 8
13 14 8 7 9 5 2 2 4 7 7 6 8 12 12 11 10 10 14 19 21 18 16 17 18 16 14 13 12 12 12 12 12 11 11 11 10 10 9 9 9 8 8 8 8 8 8 8 7
10 10 8 11 13 6 2 5 5 6 6 4 7 12 11 8 9 13 16 19 21 18 17 18 17 16 15 13 12 12 11 11 11 11 10 10 10 10 10 9 9 8 8 8 8 8 8 8 7
11 8 12 15 14 5 3 5 4 5 4 5 10 15 12 11 14 16 16 19 18 18 18 17 17 16 14 13 12 11 11 10 10 10 10 10 10 10 10 10 10 9 8 8 8 8 9 9 8
9 10 13 14 9 3 2 5 5 5 4 4 9 14 11 12 13 15 16 16 18 20 19 16 17 16 14 13 12 11 11 10 10 10 10 10 9 9 9 9 9 9 9 9 9 9 9 10 9
11 13 17 19 15 8 1 3 3 4 4 4 4 13 12 13 13 14 14 14 17 20 19 15 14 14 14 13 12 11 11 10 10 10 9 9 9 9 10 10 10 10 10 10 10 10 10 10 10
11 12 18 18 16 9 3 3 3 3 3 2 3 9 12 14 13 14 13 12 15 19 18 15 15 13 12 11 13 12 11 10 10 10 10 10 10 11 12 11 12 12 11 11 11 11 11 11 11
14 13 16 18 14 9 6 5 6 4 2 5 11 10 16 17 15 13 12 11 11 15 15 15 15 13 12 12 13 12 12 11 11 10 12 11 9 11 11 15 16 16 14 14 13 12 12 12 13
14 13 18 18 15 12 9 6 7 5 6 8 11 9 11 12 12 12 11 11 11 11 13 11 13 12 10 9 10 9 9 10 9 8 10 8 7 7 10 14 18 18 17 16 15 14 13 11 9
17 18 18 20 16 12 11 10 6 4 7 8 6 4 6 8 9 9 9 9 10 8 8 10 10 9 6 4 7 4 4 6 9 8 8 7 6 6 6 4 9 12 14 11 12 12 9 10 8
20 19 18 18 15 11 10 9 5 5 7 7 6 5 5 6 6 7 8 8 10 7 6 6 9 8 3 2 2 2 2 3 4 4 5 4 3 3 3 2 2 5 6 8 7 7 10 10 9
18 17 17 16 14 11 10 8 4 4 9 10 10 9 7 5 4 6 7 8 9 6 5 5 7 7 4 3 2 1 1 0 1 1 3 2 2 3 3 2 2 3 4 6 7 6 7 8 8
15 15 15 14 13 10 9 8 4 4 9 10 11 11 12 12 12 11 11 9 8 6 5 5 6 7 4 2 1 2 3 1 2 1 1 1 2 2 2 3 4 4 4 4 4 5 5 5 5
14 15 16 15 13 10 9 8 1 7 8 8 10 10 13 13 14 13 12 10 9 7 7 5 4 5 3 1 1 2 3 3 2 2 2 1 2 2 3 4 4 4 4 5 3 4 4 5 6
16 15 15 13 11 8 9 3 7 6 8 9 8 9 10 10 11 11 11 10 9 8 7 6 4 4 2 1 1 3 3 3 3 3 3 2 3 3 3 4 4 4 4 4 4 3 4 5 5
12 12 11 5 4 5 6 6 7 5 10 9 8 9 8 8 8 8 9 9 8 7 5 5 4 4 3 2 1 3 2 2 2 1 1 2 3 4 3 3 3 3 3 4 5 3 4 5 6
9 6 5 4 1 4 4 10 8 6 9 10 9 8 8 7 7 6 6 6 6 6 5 4 3 3 3 2 2 2 2 2 2 1 1 2 2 3 4 3 3 3 2 3 3 3 3 4 4
8 5 4 2 1 4 5 9 9 8 7 8 9 8 8 8 7 6 5 5 5 4 3 3 3 2 2 2 2 2 2 3 2 1 1 2 2 3 3 4 3 3 3 3 3 3 4 4 3
11 7 1 3 5 5 1 6 7 7 7 7 8 8 8 7 7 6 4 4 4 4 3 2 2 2 2 2 2 2 2 3 3 1 0 0 1 2 4 2 3 2 2 3 3 3 3 3 3
10 10 6 3 3 6 5 3 5 6 5 6 7 7 7 6 6 5 4 4 3 3 1 2 2 1 2 3 3 3 3 3 3 2 1 0 1 2 2 3 3 2 2 2 2 2 3 3 3
7 9 8 6 4 5 3 1 2 3 1 4 6 7 6 5 5 4 3 2 2 1 2 2 2 1 1 2 3 5 5 5 5 3 3 2 2 3 3 2 2 1 2 2 3 2 2 3 3
6 6 6 11 9 7 8 4 1 3 3 4 5 6 4 4 3 2 1 0 1 2 2 1 2 1 1 2 4 5 5 5 5 5 6 5 4 5 5 4 2 1 1 1 2 2 2 3 3
7 4 5 10 9 7 3 2 4 6 8 7 5 5 3 2 1 1 1 1 2 3 3 2 1 1 1 3 4 5 6 6 7 8 7 6 5 4 5 4 3 2 1 1 1 2 2 2 3
7 5 3 5 3 7 8 3 3 7 7 6 5 3 2 1 1 1 1 2 3 3 3 3 2 2 3 4 5 5 7 7 8 9 7 6 5 4 4 3 3 3 3 2 2 2 2 3 3
7 5 3 5 4 4 5 3 3 8 7 5 3 2 1 2 2 2 2 2 3 4 4 4 4 4 4 4 5 5 7 6 6 7 6 6 5 6 6 5 3 4 4 4 3 2 3 2 3
8 9 10 8 6 2 6 7 6 6 5 3 3 4 5 6 6 6 7 7 6 6 5 5 5 5 5 5 7 7 7 6 6 7 7 7 6 7 6 5 5 4 5 5 5 4 4 3 3
8 9 7 8 8 6 6 7 5 4 6 6 7 7 8 8 9 10 9 9 8 7 6 6 5 5 5 7 7 9 6 6 7 7 8 7 7 8 8 8 7 7 6 6 6 5 5 5 5
8 9 8 7 8 8 6 7 7 5 4 6 8 9 9 9 10 10 9 9 9 9 8 7 7 7 6 6 6 7 6 6 7 7 7 7 7 7 7 7 8 8 8 7 7 8 7 7 6
5 7 7 6 7 7 5 6 4 4 7 10 10 10 10 10 10 10 10 9 9 9 9 9 8 8 7 7 7 7 7 7 8 9 8 8 8 8 9 8 9 9 10 8 8 9 9 8 8
Wind_Direction
184 201 212 230 240 256 317 338 32 50 53 56 48 40 56 51 49 77 102 112 114 122 130 135 134 134 133 133 137 143 147 148 147 145 144 144 143 141 140 138 137 134 130 125 123 121 118 115 113
197 208 217 236 235 221 273 319 25 59 60 58 63 55 68 66 70 95 105 115 118 125 137 136 136 136 135 134 136 142 148 150 151 151 150 150 150 150 150 148 147 146 142 137 134 130 127 125 126
226 231 245 242 241 223 256 17 41 68 71 58 71 63 57 69 83 100 118 123 121 127 131 133 141 139 139 138 139 142 148 151 152 154 154 155 155 156 157 157 157 157 153 148 144 140 138 136 138
233 228 239 252 268 275 293 32 23 67 67 54 81 84 77 67 92 113 129 125 122 130 131 138 143 143 143 143 144 146 149 153 156 157 159 160 162 165 168 169 169 168 163 161 158 155 151 151 153
241 253 248 258 269 287 351 41 353 51 60 50 81 94 91 93 105 122 133 128 135 135 131 141 146 146 147 147 149 151 153 156 159 163 167 169 172 176 178 179 180 178 175 173 171 170 166 166 169
247 252 265 277 285 284 341 37 345 37 48 58 92 107 107 118 125 136 138 144 142 133 133 140 147 148 150 152 155 158 160 164 167 171 175 177 179 184 189 190 189 187 187 186 184 182 179 180 183
258 277 284 290 294 286 21 13 347 25 33 41 90 112 125 136 138 141 144 150 141 132 132 145 150 152 155 158 162 166 170 173 177 181 184 187 191 196 200 202 202 201 199 199 199 197 194 194 194
267 283 283 282 281 291 53 11 8 15 71 2 40 104 132 137 149 141 147 152 139 133 139 150 153 154 160 166 172 175 178 182 187 192 195 199 203 208 211 209 209 210 207 207 209 208 207 204 204
260 264 271 276 294 321 16 359 342 325 119 59 46 72 133 143 148 145 154 152 141 136 141 156 153 157 169 172 170 177 185 191 194 199 205 207 214 214 210 217 209 207 209 210 213 215 215 212 213
241 255 266 281 309 319 337 337 311 317 49 56 54 66 117 139 145 155 159 155 144 139 147 152 150 156 174 174 155 181 188 187 200 201 196 206 223 234 229 209 205 206 209 211 215 218 220 219 222
245 252 271 288 302 309 308 304 307 341 55 60 71 93 122 139 155 165 162 154 138 140 143 142 137 141 164 144 151 181 189 173 200 213 195 202 220 234 246 215 194 203 209 213 215 215 220 221 221
251 253 264 279 291 299 295 296 327 31 52 73 91 120 132 158 168 165 146 139 131 134 129 131 127 127 125 91 125 174 182 158 189 198 209 206 215 254 266 256 209 203 208 212 218 208 210 221 225
258 256 260 269 272 273 277 282 296 50 59 53 60 65 62 77 98 91 90 103 113 121 124 98 103 110 100 60 6 8 321 237 228 170 201 226 227 249 276 294 270 250 234 217 218 219 215 215 223
278 276 272 267 262 259 257 262 253 74 65 62 55 48 42 42 45 63 69 67 79 85 79 81 91 99 99 91 347 311 292 283 281 263 234 243 267 271 283 283 279 275 269 260 234 233 235 221 219
270 271 268 260 249 237 234 238 188 79 77 72 66 58 50 45 46 49 58 58 64 67 62 65 88 98 108 134 286 290 292 309 317 329 310 278 275 282 272 274 274 271 271 268 261 257 262 252 235
270 262 258 252 239 217 225 196 93 95 102 87 77 74 67 54 51 48 53 56 55 58 59 50 40 58 73 53 310 300 315 331 340 341 336 327 305 287 277 270 270 272 268 256 249 243 247 251 245
267 266 261 251 255 237 199 126 103 121 112 108 93 85 79 71 60 54 51 57 56 58 59 60 40 29 15 344 312 290 296 303 302 302 323 333 316 304 293 276 271 277 268 253 254 238 239 247 247
291 282 275 260 258 277 145 117 122 120 114 111 104 98 93 85 74 70 67 68 66 62 57 52 50 38 2 351 329 310 308 304 290 298 350 319 307 314 301 282 282 282 279 261 251 252 256 255 254
273 265 236 184 178 266 162 134 132 123 115 112 111 107 102 100 101 96 96 94 93 87 79 65 51 44 2 2 342 336 339 321 298 278 34 333 331 332 311 305 300 280 278 271 258 245 253 249 248
297 305 358 2 323 312 180 131 118 108 100 102 112 117 117 116 114 109 110 107 98 95 95 102 76 40 7 19 319 281 298 294 292 312 223 271 323 317 312 317 300 299 283 274 271 255 255 253 234
331 336 331 285 283 283 270 147 105 93 98 118 120 118 116 120 116 117 115 110 108 99 83 67 61 15 359 339 312 320 312 292 300 311 282 235 300 282 289 303 309 312 298 284 281 251 244 253 264
322 308 317 311 287 271 255 231 108 97 154 152 139 127 123 122 124 124 122 116 128 167 182 159 176 207 283 304 321 327 310 306 310 308 307 309 268 251 240 248 274 310 313 306 291 277 258 255 267
279 276 356 3 350 340 27 23 252 161 206 184 146 123 118 122 120 113 93 206 280 286 274 212 175 187 280 312 305 303 304 311 313 318 308 302 283 257 235 219 204 226 276 312 310 323 302 272 265
287 298 25 26 17 349 320 284 213 188 190 175 146 127 124 112 112 134 250 250 266 283 294 319 63 72 334 319 317 312 307 307 304 299 291 285 269 257 245 215 183 198 213 247 280 279 271 279 283
320 326 351 7 21 260 247 240 199 159 148 137 122 118 124 137 179 259 269 278 285 302 327 348 7 355 342 325 318 315 312 307 291 280 279 283 292 288 277 254 183 200 202 210 224 243 254 249 254
308 308 296 296 251 235 202 190 134 115 113 108 101 72 29 18 5 320 306 317 332 333 347 353 357 346 336 322 312 303 295 288 287 299 313 307 298 291 287 285 244 220 214 222 209 225 228 230 243
337 344 337 319 302 162 141 132 130 142 123 85 43 22 16 13 358 352 359 356 353 351 352 345 339 334 325 314 303 286 274 280 295 303 295 287 281 285 292 299 285 254 229 221 214 225 232 222 226
343 341 351 338 343 350 99 109 112 77 26 12 14 15 10 0 354 357 356 350 352 347 346 343 339 333 326 316 306 306 313 311 297 290 285 286 288 283 275 269 270 265 250 228 217 221 224 220 219
352 4 2 347 354 338 11 80 93 52 13 14 14 10 7 359 354 349 346 350 349 343 339 343 342 335 323 314 306 302 298 295 293 291 289 288 286 287 284 277 272 264 256 244 230 226 221 218 218
356 10 355 345 342 331 347 98 54 36 36 34 16 8 5 359 352 350 348 350 344 340 340 338 334 325 319 317 315 311 307 304 300 298 296 297 295 290 287 280 274 269 262 248 238 233 231 220 218